Wetbulb
41.88 35.99 29.29 36.07 37.72 38.04 35.61 33.11 30.66 34.98 38.99 35.05 34.13 35.14 37.69 40.24 40.12 38.08 37.86 38.00 37.38 37.79 39.29 39.71 39.89 39.82 40.54 41.33 42.41 43.89 45.43 46.03 46.12 45.75 45.56 45.87 45.85 47.42 48.76 50.80 51.73 51.07 53.00 56.45
36.90 32.18 38.85 41.14 39.81 37.72 35.92 31.26 30.43 34.22 37.85 35.34 33.72 34.15 37.98 38.98 39.90 39.30 38.65 37.72 37.95 38.20 38.04 39.03 38.94 38.78 38.26 39.85 41.09 44.16 45.10 45.42 45.85 46.08 46.06 46.40 46.56 47.63 48.78 51.01 52.75 51.99 53.28 58.06
33.89 37.02 41.13 39.33 36.71 36.00 33.53 30.21 28.32 30.13 35.40 36.16 33.48 29.36 35.35 38.49 39.96 40.43 39.97 40.31 40.17 38.16 36.32 37.33 38.51 37.55 37.55 39.11 40.82 43.84 44.76 45.00 45.47 45.64 46.13 47.52 47.84 48.09 48.08 49.69 51.32 52.75 54.76 59.10
35.85 39.04 38.16 35.59 35.96 36.20 30.07 36.68 35.00 33.76 29.89 23.84 32.67 21.27 24.85 34.41 35.76 38.69 39.49 38.92 38.35 36.49 37.03 37.62 37.72 37.06 37.72 39.54 43.02 43.41 44.50 44.68 45.03 45.25 45.68 48.49 47.63 48.64 51.18 50.93 52.99 54.60 57.61 59.04
33.54 35.23 34.42 34.71 35.86 36.72 33.36 36.13 34.30 32.88 29.39 28.86 26.94 20.78 26.37 32.86 32.22 35.58 38.10 38.96 37.18 35.84 36.30 36.04 36.51 37.92 38.88 39.75 41.47 43.60 44.00 44.17 44.24 44.48 45.17 48.06 51.57 52.97 54.25 55.38 54.45 54.51 58.15 59.55
35.37 38.78 37.16 36.24 37.01 37.39 37.81 34.68 33.75 31.82 29.58 19.17 22.81 23.52 24.42 27.11 31.49 33.10 37.67 38.70 36.33 35.61 35.78 36.41 36.95 37.98 37.85 38.97 39.61 42.91 43.15 43.17 43.69 43.72 44.19 46.03 48.82 49.35 50.73 52.96 53.02 53.79 56.20 57.25
33.32 34.01 36.59 38.23 34.05 36.25 34.80 29.53 20.75 20.09 18.39 20.36 28.24 24.02 27.07 34.70 36.81 36.72 37.32 35.85 34.84 35.13 34.49 34.45 34.00 34.79 36.77 38.02 38.59 41.70 42.38 41.95 42.87 42.80 42.92 44.60 47.36 48.04 48.66 50.95 51.18 51.26 51.64 52.82
27.38 25.00 33.91 36.66 34.34 32.21 31.41 30.08 24.30 18.06 20.32 21.73 26.23 22.47 28.35 36.22 38.29 38.06 38.47 36.27 35.07 34.47 35.09 34.16 33.72 34.41 35.94 37.97 38.24 40.26 41.54 41.56 42.15 42.37 42.16 43.10 44.99 46.30 46.86 48.31 49.16 49.63 49.51 50.17
29.67 28.84 35.10 35.74 36.02 34.86 31.34 27.16 31.06 25.23 20.11 20.40 23.00 28.05 33.13 34.37 34.69 35.12 34.37 34.09 33.22 33.86 33.34 33.48 33.35 34.31 35.55 37.11 37.80 38.89 40.94 41.52 41.48 41.96 42.16 42.01 43.07 43.89 44.00 45.28 45.77 46.62 48.36 48.43
34.09 28.34 33.83 34.59 35.77 35.07 32.46 33.63 24.51 23.04 14.97 16.89 23.26 25.18 26.08 30.62 32.50 34.44 34.31 33.50 33.32 33.26 32.79 32.91 33.23 33.98 35.42 36.99 37.46 38.55 40.98 40.83 41.10 41.49 41.92 42.05 41.89 43.15 43.12 43.23 43.23 43.64 44.07 44.45
36.42 32.51 29.22 33.51 30.70 29.71 29.17 27.63 29.27 28.19 25.87 22.50 19.86 25.02 31.12 33.04 35.05 34.45 35.01 36.15 34.52 32.48 32.10 32.39 33.20 33.96 35.19 36.57 36.90 37.07 37.75 40.45 40.42 40.48 40.95 40.95 40.77 41.26 42.22 41.61 41.57 41.78 41.64 41.84
37.42 32.02 23.90 28.35 31.94 33.75 32.12 29.73 29.98 24.55 23.11 23.78 24.99 24.42 33.89 34.44 36.13 36.09 35.35 37.14 34.46 33.73 32.15 32.10 32.84 33.55 34.19 35.56 36.19 36.51 37.25 39.61 40.29 40.16 39.60 39.27 39.18 39.08 38.75 39.09 39.26 39.69 38.68 38.96
35.87 25.46 17.05 23.14 28.13 30.14 29.62 31.25 31.56 29.56 26.63 24.30 21.47 25.35 34.14 34.18 35.25 35.86 35.84 36.11 34.03 32.57 31.26 31.99 32.01 32.61 33.34 34.55 35.56 35.98 36.33 36.81 39.20 39.63 39.10 38.50 38.06 37.86 36.79 36.85 37.02 37.40 37.04 36.80
39.08 31.34 27.12 23.96 27.02 27.74 25.74 27.94 30.69 29.65 22.91 24.09 26.11 27.16 32.40 32.19 33.66 34.99 35.67 35.56 33.39 33.40 33.08 31.79 31.34 31.87 33.02 34.25 34.81 35.20 35.69 36.15 36.68 36.97 36.78 36.23 36.23 35.69 35.71 36.38 36.87 36.88 36.68 36.13
36.03 23.52 26.29 27.36 28.79 28.19 27.91 28.13 28.43 28.34 31.13 25.73 27.43 30.27 36.16 36.69 33.55 35.74 36.59 35.96 33.29 33.07 32.87 32.45 31.95 31.51 32.14 32.86 34.19 35.29 35.49 35.85 35.96 35.43 34.94 34.48 34.83 35.03 35.19 35.09 35.23 35.85 35.91 35.23
35.06 28.14 24.24 19.91 27.24 27.03 25.87 27.27 29.32 29.82 31.42 31.51 31.74 30.61 39.49 36.65 34.55 33.53 35.42 36.57 34.31 34.12 34.24 33.80 33.65 33.05 32.83 33.58 33.52 35.19 35.07 35.18 35.40 34.59 34.16 34.50 34.23 33.91 33.44 33.66 33.75 34.19 34.02 33.80
31.84 29.32 26.06 24.89 24.15 20.59 19.03 24.21 28.07 30.42 30.47 32.61 27.90 34.21 35.57 35.16 36.14 37.88 35.84 37.92 37.16 35.53 35.24 34.44 34.32 34.29 34.00 33.88 34.85 34.02 34.43 34.93 34.39 33.92 34.10 33.84 33.45 32.60 32.13 31.98 31.85 32.01 32.62 32.83
28.47 28.74 28.49 19.24 19.97 16.50 29.37 29.94 31.79 31.60 33.80 35.32 35.41 37.89 38.94 38.30 39.91 38.01 38.51 38.97 39.32 37.55 36.11 35.96 35.64 35.29 34.82 34.06 33.81 34.00 34.31 34.03 33.54 33.13 33.13 32.98 32.22 31.19 30.77 30.41 30.08 30.48 30.81 30.36
32.39 29.68 23.05 20.15 13.39 24.67 30.55 32.59 28.77 27.95 30.73 35.18 35.31 37.36 38.60 37.21 34.83 37.47 38.19 39.70 41.02 40.20 37.98 37.75 37.34 36.45 35.18 34.49 34.65 34.53 33.28 32.94 32.52 32.12 31.92 31.60 31.00 29.83 29.19 28.83 28.62 29.06 29.59 29.10
31.49 31.84 29.76 21.38 14.03 13.65 28.36 28.18 30.81 33.29 27.89 36.35 35.93 36.18 36.35 34.34 31.30 35.74 38.59 37.93 40.20 40.96 38.77 37.56 37.03 36.38 35.37 35.11 34.79 33.83 32.98 32.50 32.03 31.26 31.41 30.77 30.20 29.26 28.17 28.26 28.46 29.02 28.80 30.13
27.98 28.28 27.70 20.94 21.12 22.28 30.67 30.35 29.40 24.98 31.79 31.72 33.45 34.92 34.86 33.59 37.06 36.53 35.27 36.89 38.62 39.73 37.28 37.43 36.64 35.78 35.80 34.83 34.73 32.99 32.50 32.26 32.84 31.08 30.71 30.26 29.86 29.37 28.44 28.18 28.74 28.45 28.90 29.47
27.52 26.05 25.53 27.31 24.80 20.63 31.88 28.57 29.34 34.00 31.26 31.57 32.19 33.70 34.50 35.44 34.86 33.85 34.74 34.75 36.43 35.87 35.72 36.27 35.67 34.98 35.15 34.41 34.18 32.77 31.89 33.55 31.21 30.70 30.21 29.08 28.24 29.22 28.85 27.51 27.65 27.93 28.18 27.19
25.78 29.10 26.03 29.46 28.56 32.48 30.16 32.69 33.97 32.16 32.70 31.36 30.91 31.61 33.45 35.32 35.00 34.63 34.18 35.05 35.78 35.14 34.46 34.12 35.34 32.84 33.28 33.79 34.42 32.24 33.09 31.41 30.97 29.56 27.60 25.54 24.91 27.48 27.84 27.26 26.86 27.02 27.07 26.64
27.72 32.19 27.36 29.04 31.85 32.53 32.48 33.96 32.33 32.78 32.49 32.62 32.89 32.83 32.44 33.37 35.64 33.85 32.90 32.92 33.27 32.36 32.21 33.15 32.05 32.00 31.83 33.01 33.10 33.87 32.29 31.98 30.81 29.89 27.06 24.63 25.72 25.15 24.85 27.11 27.95 27.35 26.51 25.74
28.08 31.26 27.25 27.01 29.87 31.27 34.18 34.72 36.40 36.52 33.31 31.85 31.67 32.99 33.61 32.99 32.40 33.53 32.66 31.72 32.33 32.47 32.09 31.81 32.64 32.31 32.25 32.35 32.49 30.20 31.38 31.20 30.59 29.78 27.21 26.06 26.46 26.21 25.79 26.18 27.01 27.65 27.63 28.97
29.30 28.45 29.70 28.56 33.28 35.90 37.98 37.59 37.86 33.82 34.35 34.76 32.66 31.21 31.23 31.72 32.04 32.13 32.91 32.76 31.91 32.16 30.91 31.23 31.12 31.34 31.55 31.41 31.74 30.07 31.92 32.08 31.03 28.62 26.38 26.63 25.97 24.65 25.91 26.01 22.87 30.83 30.99 32.24
MSLP
1015.53 1016.05 1016.09 1015.94 1015.94 1015.95 1016.07 1016.40 1016.64 1016.29 1016.57 1016.80 1016.46 1015.87 1015.19 1015.01 1015.24 1015.71 1015.80 1015.73 1015.94 1016.01 1016.25 1016.60 1016.68 1016.72 1016.67 1016.25 1015.79 1015.01 1014.20 1013.70 1013.02 1012.11 1011.65 1011.13 1010.57 1010.17 1009.80 1009.42 1009.13 1009.24 1009.27 1008.96
1015.99 1015.93 1015.65 1015.67 1015.86 1016.02 1016.32 1016.88 1017.11 1016.95 1016.95 1017.21 1016.69 1015.51 1014.66 1014.41 1014.39 1014.83 1015.16 1015.54 1015.77 1015.97 1016.36 1016.69 1016.88 1016.81 1016.75 1016.36 1015.73 1015.01 1014.20 1013.58 1012.81 1011.97 1011.27 1010.68 1010.10 1009.74 1009.38 1009.01 1008.72 1008.63 1008.66 1008.44
1015.96 1015.88 1015.71 1015.76 1016.02 1016.32 1016.74 1017.38 1017.85 1017.90 1017.60 1017.38 1017.46 1015.82 1014.70 1014.16 1014.02 1014.41 1014.71 1015.11 1015.47 1015.99 1016.57 1016.89 1016.97 1017.15 1016.89 1016.48 1015.90 1015.04 1014.17 1013.42 1012.73 1011.85 1010.87 1009.85 1009.57 1009.20 1008.99 1008.53 1008.35 1008.21 1008.23 1007.89
1015.89 1015.85 1015.82 1015.96 1016.16 1016.44 1017.08 1017.35 1017.90 1018.31 1018.66 1018.95 1018.66 1018.31 1015.90 1015.09 1014.60 1014.56 1014.73 1015.19 1015.77 1016.23 1016.56 1016.98 1017.21 1017.41 1017.11 1016.56 1015.89 1015.22 1014.41 1013.65 1012.78 1011.85 1010.84 1009.64 1009.11 1008.67 1008.02 1007.68 1007.69 1007.74 1007.79 1008.11
1015.95 1016.06 1016.15 1016.28 1016.29 1016.33 1017.13 1017.49 1018.02 1018.64 1019.36 1019.76 1019.73 1020.24 1015.90 1015.45 1015.02 1014.74 1014.69 1015.25 1015.86 1016.32 1016.73 1017.15 1017.41 1017.48 1017.13 1016.75 1016.25 1015.32 1014.60 1013.84 1013.15 1012.08 1011.20 1010.03 1008.86 1008.11 1007.50 1007.18 1007.29 1007.48 1007.60 1008.24
1016.10 1016.20 1016.31 1016.54 1016.82 1016.86 1017.35 1017.85 1018.39 1019.01 1019.92 1020.37 1019.95 1020.15 1016.55 1015.45 1014.28 1014.15 1014.51 1015.16 1015.90 1016.43 1016.96 1017.29 1017.34 1017.49 1017.32 1016.75 1016.27 1015.53 1014.81 1014.03 1013.42 1012.42 1011.71 1010.59 1009.64 1008.62 1007.88 1007.77 1007.75 1007.93 1008.12 1008.22
1016.36 1016.47 1016.58 1016.70 1017.19 1017.41 1017.69 1018.26 1019.19 1020.12 1020.53 1020.26 1019.72 1019.81 1015.57 1014.18 1013.72 1013.60 1014.27 1015.28 1016.01 1016.44 1017.14 1017.46 1017.57 1017.58 1017.36 1016.96 1016.58 1016.00 1015.21 1014.37 1013.84 1013.03 1012.39 1011.43 1010.50 1009.45 1009.01 1008.94 1008.74 1008.87 1009.13 1009.33
1016.17 1016.83 1016.81 1016.82 1017.01 1017.24 1017.90 1018.30 1019.02 1019.96 1020.53 1020.06 1019.37 1017.82 1014.28 1013.28 1012.99 1013.36 1013.95 1014.98 1015.96 1016.66 1017.16 1017.47 1017.63 1017.63 1017.45 1017.21 1016.92 1016.44 1015.75 1015.00 1014.34 1013.82 1013.23 1012.42 1011.55 1010.57 1010.40 1010.34 1009.76 1009.95 1010.25 1010.61
1015.36 1016.42 1016.91 1017.06 1017.16 1017.46 1017.94 1018.36 1018.56 1019.39 1020.53 1020.02 1017.67 1015.67 1013.52 1013.30 1013.39 1013.74 1014.36 1015.24 1016.00 1016.66 1017.15 1017.47 1017.73 1017.67 1017.53 1017.37 1017.22 1016.82 1016.26 1015.51 1015.00 1014.61 1014.20 1013.35 1012.99 1012.39 1011.70 1011.51 1011.41 1011.44 1011.62 1012.03
1014.65 1016.10 1017.12 1017.45 1017.50 1017.71 1017.76 1018.22 1018.76 1019.48 1020.02 1019.28 1016.86 1015.26 1013.53 1013.17 1013.23 1013.74 1014.25 1014.93 1015.54 1016.41 1017.06 1017.39 1017.67 1017.80 1017.68 1017.45 1017.39 1017.16 1016.75 1016.20 1015.71 1015.28 1015.22 1014.62 1014.12 1013.64 1013.38 1012.84 1012.96 1013.09 1013.15 1013.29
1014.70 1015.53 1017.84 1017.90 1017.70 1017.52 1018.23 1018.16 1018.54 1018.85 1019.02 1018.48 1017.30 1013.91 1011.98 1011.95 1012.05 1012.60 1013.37 1014.15 1014.83 1015.70 1016.62 1017.22 1017.53 1017.85 1017.80 1017.59 1017.53 1017.55 1017.17 1016.58 1016.33 1016.03 1015.77 1015.55 1015.12 1014.67 1014.29 1014.21 1014.32 1014.30 1014.13 1014.47
1014.97 1016.11 1017.55 1017.35 1017.30 1017.27 1017.32 1017.53 1017.87 1018.47 1018.53 1018.19 1017.41 1013.76 1011.52 1011.44 1011.33 1011.85 1012.88 1013.53 1014.42 1015.26 1015.93 1016.78 1017.43 1017.68 1018.00 1017.85 1017.75 1017.82 1017.51 1017.19 1017.16 1016.93 1016.70 1016.51 1016.34 1016.15 1015.76 1015.69 1015.80 1015.61 1015.56 1016.01
1015.00 1016.34 1017.60 1018.00 1018.14 1017.73 1017.45 1017.25 1017.40 1017.80 1018.01 1017.47 1016.66 1012.96 1011.41 1011.36 1011.60 1011.76 1012.59 1013.25 1013.98 1014.98 1015.85 1016.44 1017.20 1017.54 1017.99 1017.96 1018.01 1018.10 1018.06 1017.72 1017.68 1017.50 1017.47 1017.35 1017.17 1017.22 1017.32 1017.06 1017.00 1016.98 1017.34 1017.61
1014.91 1016.50 1017.11 1017.25 1016.94 1016.93 1017.38 1016.96 1016.97 1017.30 1017.70 1016.15 1013.91 1012.29 1011.10 1011.14 1011.38 1011.70 1012.15 1012.68 1013.40 1014.27 1015.15 1015.93 1016.78 1017.34 1017.72 1017.93 1018.00 1018.16 1018.36 1018.10 1018.05 1018.16 1018.15 1018.35 1018.43 1018.23 1018.13 1018.22 1017.97 1017.86 1018.20 1018.37
1015.88 1017.01 1017.39 1017.13 1017.15 1017.13 1017.02 1016.88 1016.73 1016.44 1015.03 1014.88 1012.35 1011.53 1009.84 1009.76 1010.22 1010.55 1011.02 1012.09 1012.93 1013.67 1014.45 1015.16 1015.99 1016.79 1017.25 1017.77 1017.86 1018.13 1018.39 1018.33 1018.20 1018.42 1018.68 1019.06 1019.20 1019.26 1018.99 1018.72 1018.84 1019.09 1019.07 1019.30
1016.66 1017.40 1017.93 1018.00 1017.35 1017.11 1016.73 1016.24 1015.54 1014.76 1014.10 1013.20 1011.96 1009.96 1009.15 1008.29 1008.85 1009.49 1010.18 1011.20 1011.86 1012.31 1013.04 1013.98 1014.91 1015.87 1016.52 1017.15 1017.58 1017.89 1018.18 1018.46 1018.37 1018.55 1018.94 1019.15 1019.41 1019.80 1020.07 1020.03 1019.98 1019.85 1020.06 1020.39
1017.04 1017.72 1018.34 1018.31 1017.65 1017.32 1016.51 1014.03 1013.38 1012.74 1011.89 1011.15 1011.12 1006.61 1007.85 1007.50 1007.78 1007.98 1008.70 1009.48 1009.98 1010.79 1011.57 1012.63 1013.48 1014.30 1015.24 1016.08 1016.89 1017.43 1017.78 1018.40 1018.63 1018.61 1018.93 1019.33 1019.59 1019.97 1020.51 1020.87 1020.96 1021.00 1021.12 1021.33
1016.83 1017.58 1018.14 1018.53 1018.08 1016.71 1012.46 1011.43 1011.27 1011.07 1009.80 1009.46 1008.59 1006.40 1006.59 1006.60 1006.82 1007.02 1006.92 1007.54 1008.28 1009.26 1010.18 1011.11 1012.17 1013.29 1014.24 1015.03 1016.25 1016.93 1017.57 1018.13 1018.72 1018.99 1019.08 1019.48 1019.93 1020.32 1020.53 1020.87 1021.56 1022.09 1022.21 1022.21
1015.93 1016.70 1017.77 1018.27 1017.94 1014.33 1011.50 1010.16 1010.25 1009.93 1008.17 1007.25 1007.36 1005.65 1005.55 1006.66 1006.79 1005.35 1006.00 1006.06 1006.49 1007.32 1008.33 1009.30 1010.46 1011.72 1013.06 1014.17 1015.06 1016.40 1017.28 1017.89 1018.61 1018.88 1019.08 1019.49 1019.90 1020.54 1020.93 1021.31 1021.43 1021.68 1022.24 1022.91
1016.02 1015.88 1016.42 1017.42 1017.02 1014.42 1010.95 1009.46 1009.03 1008.88 1008.00 1005.98 1005.95 1005.50 1005.74 1006.45 1006.66 1004.56 1004.83 1004.98 1005.62 1006.29 1007.31 1008.53 1009.89 1011.07 1012.26 1013.27 1014.32 1015.54 1016.61 1017.50 1018.23 1018.61 1018.77 1019.19 1019.66 1020.16 1020.78 1021.12 1021.57 1021.78 1022.20 1022.53
1015.55 1015.82 1015.23 1016.07 1015.42 1012.59 1009.91 1009.11 1009.25 1008.76 1006.98 1006.04 1005.88 1005.67 1005.31 1005.86 1005.19 1005.02 1004.86 1004.91 1005.15 1005.72 1006.89 1008.08 1009.16 1010.08 1011.07 1012.42 1013.47 1014.71 1015.70 1016.39 1016.98 1017.99 1018.68 1019.12 1019.50 1019.90 1020.15 1020.71 1021.18 1021.80 1022.22 1022.67
1013.05 1013.98 1014.25 1014.70 1014.34 1011.14 1008.11 1009.05 1008.73 1006.27 1005.73 1005.70 1005.66 1005.54 1005.30 1005.28 1005.18 1005.22 1005.17 1005.21 1005.50 1006.03 1006.92 1007.78 1008.82 1009.80 1010.67 1011.68 1012.48 1013.69 1014.51 1015.08 1016.14 1017.31 1018.32 1018.89 1019.10 1019.77 1020.26 1020.60 1021.03 1021.53 1022.07 1022.58
1011.79 1010.16 1010.80 1010.73 1008.75 1007.28 1006.99 1006.21 1005.66 1005.47 1005.46 1005.58 1005.57 1005.46 1005.55 1005.56 1005.47 1005.40 1005.55 1005.87 1006.09 1006.47 1006.96 1007.65 1008.42 1009.58 1010.60 1011.26 1011.76 1012.52 1013.07 1014.40 1015.58 1016.61 1017.69 1018.68 1019.11 1019.31 1019.81 1020.46 1020.95 1021.46 1021.90 1022.26
1010.35 1009.69 1009.65 1009.26 1006.59 1006.63 1006.32 1005.85 1005.72 1005.74 1005.45 1005.41 1005.43 1005.47 1005.56 1005.66 1005.65 1005.81 1005.60 1005.81 1006.61 1007.03 1007.39 1007.73 1008.45 1009.30 1010.21 1010.89 1011.39 1011.52 1012.46 1013.51 1014.85 1015.86 1016.81 1017.89 1018.70 1019.14 1019.44 1019.74 1020.33 1020.88 1021.28 1021.77
1008.20 1008.43 1007.89 1007.47 1006.20 1006.17 1005.50 1005.20 1004.91 1004.95 1005.01 1005.28 1005.21 1005.33 1005.39 1005.68 1005.73 1005.75 1006.06 1005.88 1006.23 1006.93 1007.41 1007.79 1008.20 1008.89 1009.55 1010.35 1011.06 1011.58 1012.07 1012.87 1014.15 1015.16 1016.05 1016.91 1017.93 1018.56 1018.94 1019.13 1019.33 1019.73 1020.01 1020.25
1006.35 1006.33 1006.42 1004.86 1004.60 1004.33 1003.81 1003.65 1003.83 1004.55 1004.53 1004.61 1005.10 1005.23 1004.99 1005.33 1005.26 1005.62 1005.65 1005.90 1006.01 1006.41 1006.94 1007.45 1007.82 1008.36 1009.01 1009.72 1010.48 1011.22 1011.66 1012.08 1013.02 1014.43 1015.47 1016.06 1016.87 1017.85 1018.54 1019.02 1019.38 1019.26 1019.42 1019.83
Wind_Speed
1 4 4 7 5 2 1 1 2 1 2 3 7 14 14 9 11 8 8 7 5 3 3 4 6 7 7 8 10 13 14 14 11 9 8 7 6 6 7 7 9 8 9 12
4 3 1 6 4 3 3 2 3 5 3 1 6 20 15 11 10 10 10 6 5 1 4 5 6 7 8 8 10 13 15 14 11 8 9 6 6 6 7 7 7 9 10 11
5 3 3 2 1 3 2 4 3 3 6 4 7 11 5 4 4 7 5 6 4 4 3 5 6 7 7 9 12 13 15 15 12 13 10 6 5 5 6 6 5 7 9 10
3 3 4 2 3 4 2 2 4 2 4 3 5 8 6 4 2 5 6 5 5 6 4 4 6 7 7 8 11 12 14 14 13 15 12 13 3 5 3 4 4 5 7 10
3 5 3 3 2 3 3 2 2 1 1 3 4 4 10 2 5 8 8 7 7 6 5 4 5 5 6 8 10 11 12 13 13 15 13 10 7 2 3 4 4 4 5 8
3 1 2 2 3 4 5 2 2 2 1 3 4 6 9 4 6 3 4 6 8 7 6 4 4 5 6 7 8 10 12 13 14 14 15 14 11 9 9 8 7 6 4 5
3 2 2 3 4 3 2 4 4 6 4 5 2 2 13 6 6 5 9 9 8 7 5 3 4 5 6 8 9 9 12 13 13 14 15 14 11 12 14 8 7 9 8 6
6 3 6 4 3 5 5 5 5 5 2 4 2 8 8 4 5 4 8 9 8 7 5 5 3 3 5 7 8 9 10 12 13 13 13 13 13 10 9 11 10 9 10 8
5 2 1 4 3 2 4 3 2 5 2 3 4 8 7 2 3 6 9 8 8 7 6 6 4 3 4 5 7 8 9 12 13 12 11 12 11 13 12 15 13 10 11 12
1 5 1 0 2 2 2 2 4 3 1 4 6 6 7 6 10 8 9 10 9 7 7 6 5 3 2 4 5 7 8 9 11 12 11 10 11 11 12 14 15 14 14 15
2 3 1 2 7 8 3 2 2 2 4 4 3 8 6 5 10 15 11 10 10 11 9 7 6 4 3 3 4 5 6 11 12 12 11 12 12 12 13 13 12 13 15 15
3 4 4 7 1 2 4 7 6 5 5 2 1 10 2 5 4 8 8 9 9 11 10 8 7 7 3 4 4 4 5 8 9 9 10 11 11 12 13 13 11 12 14 12
6 1 3 8 4 3 5 6 5 3 3 6 6 8 1 3 3 4 8 8 10 10 9 8 7 7 6 4 4 4 3 5 7 7 9 10 10 12 11 11 11 13 11 11
6 3 6 8 2 5 5 6 7 7 4 5 11 7 5 6 8 7 6 9 12 13 13 9 8 7 7 6 6 6 3 3 6 6 7 7 7 6 6 7 9 10 9 11
5 7 4 5 6 4 6 5 9 13 20 10 5 17 18 15 12 13 11 9 12 13 13 13 11 9 8 7 7 6 4 4 5 7 7 6 6 6 6 8 8 8 10 9
2 2 3 5 5 9 9 9 14 18 19 20 18 28 15 11 6 7 11 14 16 16 16 15 13 12 11 9 8 7 7 6 5 7 7 6 7 6 6 6 7 8 8 8
8 6 3 4 2 4 8 20 23 16 10 18 17 33 2 6 12 16 12 17 20 18 18 17 18 17 14 13 10 10 8 6 6 6 6 7 6 7 6 6 6 6 6 6
7 6 3 3 4 4 7 4 10 19 23 22 19 26 16 13 16 11 12 18 19 18 19 18 16 14 14 12 9 8 7 7 7 6 7 6 6 6 6 7 6 5 4 5
5 5 3 5 4 9 7 6 8 9 10 20 24 29 26 9 4 15 10 14 20 21 20 18 17 17 15 15 14 12 9 8 7 7 7 7 7 7 7 6 7 6 7 5
3 1 5 4 5 9 7 2 3 5 8 2 12 19 13 7 9 5 10 9 15 16 16 17 16 14 16 15 15 15 12 11 10 9 9 8 8 8 8 7 6 4 4 5
7 4 11 5 5 10 13 6 1 5 6 1 2 4 6 8 10 3 4 4 8 13 15 15 17 18 18 16 17 16 14 15 13 8 7 7 7 8 8 7 5 5 6 6
13 11 7 5 6 14 10 6 9 8 3 4 3 2 0 6 4 3 3 1 8 11 12 16 16 14 14 17 18 17 17 14 11 11 9 7 8 6 6 7 6 7 7 6
7 9 10 15 13 3 9 5 10 3 3 4 3 1 2 4 5 5 3 2 5 8 10 12 15 13 12 16 17 18 16 13 13 13 10 8 6 7 8 8 7 6 6 6
5 7 3 4 9 13 8 8 7 6 9 5 6 5 3 5 6 7 5 4 4 6 7 9 11 14 14 14 15 16 14 15 15 14 12 8 9 7 6 5 7 7 7 6
7 12 7 8 6 7 10 11 11 10 7 8 8 9 10 7 8 8 7 7 8 7 6 8 12 13 15 14 14 8 13 15 15 13 11 11 8 9 8 6 8 8 7 9
8 9 10 11 8 11 14 7 10 9 13 13 10 8 11 9 11 6 8 7 7 9 7 9 9 9 11 13 13 10 13 16 16 13 10 10 9 8 7 7 2 10 9 14
Wind_Direction
254 84 205 218 201 182 123 252 287 255 192 260 236 269 264 249 198 206 224 241 212 145 87 45 12 346 343 334 328 317 324 326 321 315 307 285 274 268 264 248 241 227 247 260
37 220 207 124 114 106 73 77 275 293 171 242 293 278 276 233 204 190 199 216 187 118 37 12 360 351 349 326 318 325 330 331 325 321 304 276 270 266 260 273 254 223 235 240
171 197 158 118 123 142 191 159 239 235 329 279 319 295 337 353 143 173 188 167 156 120 76 9 1 352 341 329 332 330 332 332 329 336 313 292 255 245 248 245 253 248 217 210
216 172 149 140 213 161 219 127 156 302 39 265 51 284 307 294 212 191 195 178 191 120 71 24 2 345 341 328 330 333 336 339 340 344 328 326 243 271 241 229 218 236 210 186
216 160 164 179 213 146 181 136 146 62 299 351 331 67 271 295 260 237 213 207 155 134 102 61 13 350 335 337 334 330 346 349 348 352 345 344 342 333 303 267 202 205 142 160
120 151 156 148 58 74 151 125 90 36 82 15 243 124 285 222 214 230 173 172 153 134 110 80 27 8 342 336 338 337 353 0 358 359 354 1 357 21 38 47 73 59 94 121
133 197 105 132 87 18 77 69 351 354 5 225 187 89 247 260 217 200 166 153 154 130 129 101 34 9 351 350 338 342 359 9 5 8 3 3 9 37 40 33 67 77 68 73
156 289 174 184 198 181 181 164 160 212 253 281 54 239 253 283 158 146 139 148 142 139 152 124 94 38 10 356 345 345 7 14 13 15 9 12 17 43 43 49 59 62 74 74
149 114 44 64 10 124 173 192 193 106 38 43 229 276 287 65 150 126 133 144 162 163 167 143 123 73 37 15 354 345 10 22 20 25 13 30 29 41 50 56 57 48 68 75
106 108 159 247 58 61 139 181 70 357 149 275 284 268 243 234 221 201 176 182 177 164 167 148 142 120 68 42 3 0 16 29 28 38 19 33 45 56 58 63 63 68 69 72
106 104 226 115 200 180 148 223 188 142 165 191 288 266 207 242 214 202 201 184 178 167 170 162 158 142 120 80 44 13 4 44 33 31 38 30 31 44 58 59 63 66 69 68
146 133 181 204 157 144 179 192 171 146 221 231 134 273 330 338 247 173 194 180 176 170 164 158 165 144 147 114 84 44 8 56 45 35 41 41 36 33 46 56 49 60 67 62
171 245 49 341 354 344 205 193 183 116 82 210 152 256 326 324 345 178 185 183 168 161 160 158 158 155 170 154 128 101 52 55 71 59 56 45 43 52 42 52 53 53 59 58
112 145 189 192 189 120 194 196 188 159 167 186 231 279 232 231 236 244 201 181 171 170 169 167 163 170 172 178 152 131 122 108 104 90 81 65 46 46 60 45 55 71 71 75
126 191 198 245 232 203 202 197 193 205 222 194 210 225 245 244 215 218 210 181 173 179 174 178 174 173 172 183 163 147 148 138 122 101 90 86 66 38 41 69 67 63 67 68
124 199 114 294 240 220 242 220 220 217 233 241 249 271 248 238 229 204 192 185 193 190 188 181 176 171 176 181 177 161 158 165 143 126 118 108 91 68 47 47 52 73 73 68
154 148 141 254 321 359 299 221 217 219 213 221 225 243 121 251 231 231 201 195 197 196 188 182 183 179 179 179 177 170 167 160 152 143 135 127 123 110 89 59 55 62 69 77
149 150 133 228 21 265 236 186 218 223 236 226 247 258 244 244 251 234 208 198 201 194 190 187 181 180 178 168 163 156 159 157 163 162 148 145 135 128 127 118 109 85 62 78
172 148 158 158 209 304 280 224 173 177 258 228 233 251 255 259 310 257 214 205 200 193 190 187 179 179 168 172 162 162 162 158 166 178 169 162 152 149 145 145 143 136 123 97
160 93 157 137 178 226 241 238 210 162 290 283 216 251 262 151 228 262 214 191 202 194 182 174 175 169 168 172 162 161 172 169 184 190 182 166 162 159 162 154 147 129 122 120
162 171 203 183 243 277 250 197 188 116 231 164 216 255 225 195 228 238 310 234 191 177 170 168 168 173 178 165 164 171 172 186 185 167 170 167 170 171 163 155 149 142 134 128
171 165 184 170 219 266 176 78 177 211 197 188 217 237 99 249 242 257 330 282 168 163 159 166 169 176 172 170 169 174 186 183 160 161 171 179 169 166 164 157 145 142 142 146
210 183 175 191 208 222 206 223 230 190 198 199 221 196 256 263 219 218 252 251 184 170 164 166 170 164 173 178 182 179 189 163 164 162 172 174 169 166 166 160 157 149 157 164
239 213 230 111 239 227 225 251 235 223 229 235 241 245 230 251 247 238 207 191 188 170 171 167 157 173 178 186 191 198 166 165 165 174 174 168 176 174 171 156 163 164 172 174
183 156 174 264 274 325 262 236 241 252 222 228 232 229 242 225 246 225 239 209 189 186 173 173 180 184 188 183 195 182 169 162 172 177 176 173 179 184 180 185 178 185 196 189
179 177 184 220 204 203 244 233 235 222 242 237 226 245 241 205 234 214 233 222 196 184 175 183 187 180 184 184 190 183 176 174 169 176 179 182 175 179 184 183 176 213 197 203